RH
4 4 4 3 3 3 3 3 2 2 3 3 2 1 1 2 1 1 2 2 2 1 1 1 1 1 2 1 2 1 1 2 1 1 2 1 2 2 1 3 4 4 6 7 13 21 20 38 82 105 99 99 102 100 103 102 99 100 100 102 102 93 86 94 103 105 103 101 100 100 100 99 98 98
5 4 4 3 3 3 3 3 3 2 3 2 2 2 1 2 2 1 2 2 2 2 1 1 1 1 2 1 1 2 1 1 1 1 2 2 1 2 2 2 4 4 5 6 9 18 21 24 57 97 104 98 101 101 100 101 98 99 101 99 101 103 94 85 91 102 103 100 100 100 100 100 99 99
4 4 4 3 3 3 3 3 3 2 3 3 2 2 1 1 2 1 2 2 1 2 1 1 1 1 1 2 1 2 1 1 2 1 1 2 1 2 2 1 3 4 4 6 7 13 21 21 35 77 105 101 98 102 101 102 100 98 101 100 98 105 105 91 83 92 101 102 102 102 100 100 100 99
4 4 4 3 3 3 3 3 3 2 3 3 2 2 1 1 2 1 1 2 1 2 1 1 1 1 1 1 1 2 2 1 1 1 1 2 2 1 2 2 2 4 4 5 7 9 17 23 23 51 93 104 99 101 102 100 100 99 99 101 100 103 105 98 86 86 97 103 106 106 101 100 101 100
5 4 4 3 3 3 3 3 2 3 3 2 2 2 1 1 1 1 1 2 1 1 1 1 1 1 1 1 2 1 2 2 1 1 1 1 2 1 2 2 1 3 4 4 6 7 12 22 22 31 69 101 104 100 101 100 98 100 100 98 102 105 103 100 92 89 94 99 105 111 106 101 101 100
5 4 4 4 4 3 3 3 2 3 3 2 2 2 1 1 1 1 1 1 2 1 1 1 1 1 1 1 1 1 1 2 1 2 2 1 2 2 1 2 2 2 4 4 5 7 8 17 23 23 43 85 108 103 98 101 100 99 100 98 100 105 102 99 94 91 93 93 97 111 114 106 102 101
5 4 4 4 4 4 3 3 3 3 3 2 2 1 2 1 1 2 1 1 1 1 1 1 1 1 1 1 1 1 1 2 2 1 2 1 1 2 1 2 2 1 3 4 4 6 7 11 21 24 27 57 98 107 97 102 105 98 99 101 100 102 102 98 95 94 97 95 92 100 107 104 102 102
5 4 4 4 4 4 3 3 3 3 3 2 2 2 1 2 1 1 1 1 1 1 1 1 1 1 1 1 1 1 1 2 2 1 2 2 1 2 2 1 2 2 2 3 4 5 7 8 14 24 24 34 73 102 101 101 105 98 97 101 100 101 102 98 95 95 100 102 94 87 87 93 100 102
5 4 4 4 5 4 3 3 3 3 3 2 2 2 1 1 2 1 1 1 1 1 1 1 1 1 1 1 1 1 1 1 2 2 1 2 1 1 2 1 2 2 2 2 4 4 6 7 9 18 25 25 45 83 103 104 102 99 98 101 101 101 100 98 97 97 101 102 98 90 81 84 96 99
5 4 4 4 5 5 3 3 3 3 3 2 1 2 1 1 2 1 1 1 1 1 1 1 1 1 1 1 1 1 1 1 1 2 1 2 2 1 2 2 1 2 2 2 3 4 4 6 7 12 22 25 28 56 92 106 105 101 99 100 100 100 100 99 98 100 102 99 98 99 89 80 88 95
5 4 4 5 5 4 3 3 4 4 3 2 1 2 1 1 2 1 1 1 1 1 1 1 1 1 1 1 1 1 1 1 1 1 2 1 2 2 1 2 2 1 2 2 2 4 4 5 7 8 15 24 24 35 67 98 109 104 99 100 100 99 101 101 98 101 103 98 97 103 98 82 81 91
5 4 4 5 5 4 3 3 4 4 3 2 2 2 2 1 1 1 1 1 1 1 1 1 1 1 1 1 1 1 1 1 1 1 2 1 1 2 1 2 2 1 2 2 1 3 3 4 7 7 10 19 25 27 42 74 102 107 100 99 99 99 103 103 100 101 103 99 96 100 103 95 80 77
5 4 5 6 5 4 4 3 4 5 4 2 2 2 2 2 1 1 1 1 1 1 1 1 1 1 1 1 1 1 1 1 1 1 1 2 1 2 2 1 2 2 1 2 2 2 3 3 5 7 8 13 22 27 30 48 82 103 102 97 98 102 105 103 101 102 101 100 99 98 102 103 89 72
5 4 5 6 5 4 3 3 4 4 4 2 2 2 2 2 2 1 1 1 1 1 1 1 2 1 1 1 1 1 1 1 1 1 1 2 1 2 2 2 2 2 1 2 2 2 2 3 4 5 7 9 15 25 29 33 55 86 101 100 99 103 105 103 101 101 101 99 100 101 100 102 101 86
5 5 6 6 5 4 4 4 4 4 4 2 2 2 2 2 2 1 2 1 1 1 1 1 1 1 1 1 1 1 1 1 1 1 1 1 1 1 2 2 2 2 2 2 2 2 2 2 4 4 6 8 11 18 28 30 37 60 87 101 103 101 102 103 101 99 100 99 99 102 102 100 103 99
5 5 6 6 5 4 4 4 4 4 4 2 2 2 2 2 2 2 1 2 1 1 1 1 1 1 1 1 1 1 1 1 1 1 1 1 1 1 2 2 2 2 2 2 2 2 2 2 3 4 5 7 9 13 22 30 32 41 63 89 105 105 100 101 102 98 98 100 100 101 102 101 100 102
5 5 7 7 5 4 4 4 4 4 4 3 2 2 2 2 2 2 1 2 1 1 1 1 1 1 1 1 1 1 1 1 1 1 1 1 1 1 2 2 2 2 2 2 2 2 3 2 2 3 4 5 8 10 16 26 32 34 43 66 94 108 103 97 98 99 97 98 101 101 101 101 100 100
6 6 8 8 6 5 4 4 4 4 4 3 2 2 2 2 2 2 2 2 2 1 1 1 1 1 1 1 1 1 1 1 1 1 1 1 1 1 2 1 2 2 1 2 2 2 2 3 2 3 4 5 6 9 12 19 28 34 36 45 68 94 105 102 98 98 98 98 99 101 100 100 100 100
6 7 9 9 6 5 4 3 5 5 4 3 2 2 2 2 2 2 2 2 2 1 1 1 1 1 1 1 1 1 1 1 1 1 1 1 1 1 1 1 1 2 2 2 2 2 2 2 2 2 3 4 5 7 10 15 22 31 36 38 46 67 94 108 106 100 99 100 99 99 101 101 100 100
6 8 10 9 7 5 4 3 4 5 5 4 2 2 2 2 2 2 2 2 2 1 1 1 1 1 1 1 1 1 1 1 1 1 1 1 1 1 1 2 1 1 2 2 2 2 2 2 3 3 2 4 5 6 8 12 18 25 32 37 39 46 65 91 107 106 100 100 102 100 99 102 101 99
6 9 11 10 7 6 4 4 4 5 5 4 2 2 2 2 2 2 2 2 1 1 2 1 1 1 1 1 1 1 1 1 1 1 1 1 1 1 1 1 2 1 2 2 2 2 2 2 2 3 3 3 4 5 6 9 14 20 26 33 38 40 45 61 86 103 104 99 99 101 101 101 101 100
7 11 12 11 9 6 4 4 4 5 5 4 2 2 2 2 2 2 2 2 2 1 2 1 1 1 1 1 1 1 1 1 1 1 1 1 1 1 1 1 2 2 2 2 2 2 2 2 2 3 3 3 3 4 6 7 10 15 21 28 34 39 41 44 57 80 100 104 99 98 101 102 101 100
8 12 13 11 9 7 5 4 5 5 5 4 3 3 3 2 3 2 2 2 2 2 1 1 1 1 1 1 1 1 1 1 1 1 1 2 1 1 2 2 2 2 2 2 2 2 2 2 3 2 3 3 3 3 5 6 8 10 16 23 29 34 39 41 43 53 75 96 104 103 98 98 100 99
9 13 13 11 9 7 5 5 5 6 6 5 4 3 3 3 2 2 2 2 2 2 1 1 1 1 1 1 1 1 1 1 1 1 1 1 2 1 2 2 2 2 2 2 2 2 2 2 2 3 2 3 3 3 4 5 7 8 11 16 23 29 33 39 43 44 52 70 92 106 105 98 97 98
10 14 13 11 9 7 6 6 6 6 6 6 5 3 3 3 3 2 2 2 2 2 1 2 2 1 1 1 1 1 1 1 1 1 1 1 2 2 2 2 2 2 2 3 2 2 3 3 2 3 3 3 3 3 4 4 5 7 9 11 16 23 29 34 39 43 46 51 65 88 105 106 101 99
12 15 13 11 9 7 6 6 6 6 7 7 5 3 2 3 2 2 2 2 2 2 2 1 2 1 1 1 1 1 1 1 1 1 2 2 2 2 2 2 3 2 2 3 3 2 3 3 3 3 3 3 3 3 3 4 5 6 8 10 11 15 22 29 34 37 43 48 52 63 82 98 104 105
14 15 13 11 9 7 6 6 6 6 7 7 5 3 2 3 2 2 2 2 2 2 2 2 2 2 2 1 2 2 1 1 1 1 2 2 2 3 3 3 3 3 2 2 2 2 3 3 3 3 3 3 3 3 3 4 4 5 6 8 10 12 14 22 30 33 36 42 48 54 62 74 87 96
16 16 13 11 10 8 7 6 6 6 7 7 5 3 2 2 2 2 2 2 2 2 2 2 2 1 2 2 1 2 1 1 1 1 2 2 2 3 3 3 3 3 3 3 2 2 3 3 3 3 3 3 3 3 4 3 3 4 5 6 9 11 12 15 22 29 32 34 40 48 55 62 69 77
18 16 14 12 11 8 7 6 6 6 6 6 5 3 2 3 2 3 2 2 2 2 2 2 2 2 2 2 2 2 2 1 1 2 2 2 3 3 3 3 3 3 3 3 3 3 3 3 3 3 3 4 4 3 4 4 3 3 4 5 7 9 10 12 16 22 27 29 31 38 48 56 62 68
19 17 15 14 11 9 7 6 6 6 5 5 5 3 3 3 3 3 3 2 2 2 2 2 2 2 2 2 2 2 2 2 1 2 2 2 3 3 3 3 3 3 3 3 3 3 3 3 3 3 3 3 3 3 3 3 4 4 3 4 6 7 8 10 12 16 21 25 26 29 37 46 54 61
21 18 16 15 12 9 7 6 6 6 5 5 5 5 3 3 3 3 3 3 2 2 2 2 2 2 2 2 2 2 2 2 2 1 2 2 3 3 3 3 3 3 3 3 3 3 3 3 3 3 3 3 3 3 3 3 3 4 4 4 4 6 8 9 10 13 17 20 21 21 25 34 43 51
22 20 18 15 12 10 8 7 7 7 6 6 6 6 4 3 3 3 3 3 3 2 2 2 2 2 2 2 2 2 2 2 2 2 2 2 3 3 3 3 3 3 3 3 3 3 3 3 3 3 3 3 3 3 3 3 3 3 4 4 4 4 6 7 9 11 13 16 19 17 17 21 30 40
24 22 20 16 13 11 8 8 7 7 7 7 6 6 5 4 3 3 3 3 3 3 2 2 2 2 2 2 2 2 2 2 2 2 2 2 2 3 3 3 3 3 3 3 3 3 3 3 4 4 3 4 4 4 3 3 4 4 3 4 4 4 4 6 7 9 11 13 16 16 14 14 18 26
26 24 21 18 15 11 9 8 8 7 8 8 7 7 6 5 3 3 3 3 3 3 2 3 2 2 2 2 2 2 3 3 3 2 2 2 3 3 3 4 3 3 3 3 3 3 3 3 3 3 4 4 4 4 4 4 4 4 4 4 4 4 4 5 6 8 10 12 13 14 13 13 13 15
26 25 23 19 15 12 9 8 8 7 8 8 8 7 6 5 4 3 3 3 3 3 3 3 3 3 2 2 2 2 2 3 3 3 2 2 3 3 3 4 4 3 3 3 3 3 3 4 4 3 3 4 4 4 4 4 4 4 4 4 4 4 4 5 5 6 8 10 12 13 12 12 13 13
27 26 24 21 17 12 9 8 8 8 8 9 9 8 6 5 4 3 3 3 3 3 3 3 3 3 3 2 2 2 3 3 3 3 3 3 3 3 3 3 4 4 3 3 3 4 3 4 4 4 3 4 4 4 4 4 4 4 4 4 4 5 5 5 5 5 6 8 10 12 12 13 14 14
27 27 24 22 18 13 10 8 7 7 8 8 10 9 7 5 5 4 3 3 3 3 3 3 3 3 3 3 3 2 2 3 3 3 4 3 3 3 3 4 4 4 4 4 3 3 4 4 4 4 4 4 4 4 4 4 4 4 4 4 5 5 5 5 5 5 5 6 7 9 11 12 14 15
28 27 24 22 18 13 10 8 7 7 7 8 9 10 9 6 5 4 4 3 3 3 3 3 3 3 3 3 3 2 2 3 3 3 4 3 3 3 3 4 4 4 4 4 3 3 3 4 4 4 4 4 4 4 4 4 4 4 4 4 4 5 5 5 5 5 5 5 6 7 8 10 12 14
27 26 23 21 18 13 10 8 7 7 7 7 9 11 10 8 6 5 4 4 3 3 4 3 3 3 3 3 3 3 3 3 3 3 4 4 4 4 3 4 4 4 4 4 4 4 3 3 4 4 4 4 4 4 4 4 4 4 4 4 4 4 5 5 5 5 5 5 5 6 6 7 8 10
27 25 23 21 17 13 10 9 8 7 7 7 8 10 11 10 8 5 5 4 4 3 3 3 3 3 3 3 3 3 3 3 3 3 4 4 4 4 4 4 4 4 4 4 3 4 4 3 4 4 4 4 4 4 4 4 4 4 4 4 4 4 4 4 4 4 5 5 5 5 6 6 7 7
27 24 23 21 18 14 11 9 8 7 7 7 7 8 10 11 9 7 5 4 4 4 3 3 4 3 3 3 3 3 3 3 3 3 3 4 4 4 4 4 4 4 5 4 4 4 4 4 4 4 4 4 4 4 4 3 4 4 3 3 4 4 4 4 4 4 4 5 5 5 5 5 6 6
26 25 24 22 18 14 11 9 8 7 7 7 7 8 9 10 9 8 6 5 4 4 4 3 3 3 3 3 3 3 3 3 3 3 3 3 4 4 4 4 4 5 5 5 5 4 4 4 4 4 4 4 4 4 4 4 3 4 4 3 4 4 4 4 4 4 5 5 5 5 5 5 6 6
26 25 24 22 18 14 11 10 9 8 7 7 7 7 9 9 9 9 8 6 5 4 4 4 3 3 4 4 3 3 3 3 3 3 3 3 3 4 5 5 4 5 5 5 5 5 4 4 4 4 4 4 4 4 4 4 4 4 4 4 4 4 4 4 4 4 5 5 5 5 5 5 5 6
27 25 25 23 19 14 12 10 9 8 7 7 7 7 8 9 10 9 8 7 6 5 4 4 4 3 3 4 3 3 3 3 3 3 3 3 3 3 4 5 5 5 5 5 5 5 5 5 4 4 4 4 4 4 4 4 4 4 4 4 4 4 4 4 5 5 5 5 5 5 5 5 5 5
27 26 26 24 19 14 12 11 9 8 8 7 7 7 8 9 9 9 9 8 6 5 4 4 4 4 3 3 4 4 3 3 3 3 3 4 3 3 4 4 5 5 5 5 5 5 6 5 5 5 4 4 4 4 4 4 4 4 5 5 4 4 5 5 5 5 5 5 5 5 5 5 5 5
Wind_Speed
66 65 64 63 62 60 59 58 57 55 52 49 47 44 40 39 39 35 31 34 42 46 45 44 47 51 56 60 65 71 76 81 85 89 95 100 106 115 124 131 138 149 162 173 178 182 187 192 195 193 189 185 183 183 183 182 178 174 171 169 168 168 168 165 160 155 152 150 142 132 128 129 129 127
66 64 64 62 61 60 58 58 57 54 51 49 46 44 40 37 36 35 31 32 39 44 45 44 46 49 54 58 63 68 73 78 82 87 93 99 104 111 121 129 135 144 157 169 177 181 186 191 195 195 192 188 184 184 184 183 181 178 175 172 169 167 167 167 165 162 157 153 149 141 132 126 126 125
65 64 63 62 60 59 58 57 56 53 50 48 46 43 39 37 35 33 31 31 36 42 44 44 45 47 52 56 61 66 71 75 80 85 91 97 102 108 116 125 132 139 151 164 174 180 184 189 193 196 195 191 187 185 184 184 183 180 178 175 171 168 168 168 166 164 161 157 154 151 143 133 126 124
65 63 63 62 60 59 57 56 54 52 49 47 45 42 39 35 33 32 29 29 33 40 43 44 44 46 49 54 59 64 69 73 78 83 89 96 101 106 112 121 129 136 145 157 169 177 183 187 191 195 196 194 190 187 184 183 182 181 178 176 172 169 169 169 167 165 163 160 158 156 153 146 137 130
65 63 62 61 60 59 57 55 53 51 49 47 45 42 38 35 32 31 29 27 30 37 41 43 43 45 48 52 57 62 67 71 76 81 86 93 99 104 110 117 125 133 140 151 164 174 180 185 189 194 197 196 193 190 186 183 182 180 178 175 173 171 171 169 167 166 166 163 160 159 158 155 150 143
64 63 62 61 60 59 57 55 53 51 48 47 44 41 38 34 31 30 28 26 28 33 39 42 43 44 47 51 55 59 65 69 74 79 84 90 97 103 108 114 122 129 137 145 157 169 177 183 187 191 196 198 195 192 188 184 182 180 178 175 173 172 172 170 167 166 167 167 164 161 160 158 154 151
64 62 62 61 60 59 57 55 53 51 48 46 44 40 36 34 31 28 27 26 26 30 36 40 43 45 47 50 54 58 63 67 72 77 82 88 94 101 106 111 118 125 133 141 150 162 173 180 186 190 194 197 197 194 190 186 183 181 178 175 173 173 173 171 167 165 165 168 168 165 163 160 156 153
63 62 61 60 59 59 57 54 53 51 48 46 43 39 35 32 31 28 26 25 26 28 33 38 42 45 46 48 52 57 62 66 71 76 81 86 91 98 103 108 114 121 129 137 144 155 167 176 183 188 191 195 198 196 192 189 186 183 179 176 174 173 173 170 167 165 164 167 170 169 166 163 160 157
62 61 60 59 58 58 57 54 53 51 49 46 42 38 34 31 30 29 26 25 25 27 30 36 41 44 45 47 50 56 60 65 70 75 80 84 89 95 101 106 111 117 124 133 140 148 159 170 179 185 190 193 197 198 194 191 188 184 180 177 175 173 172 169 165 164 164 166 168 170 169 166 163 162
61 60 59 58 58 58 55 53 52 51 49 46 42 38 34 30 29 29 27 25 25 26 28 33 39 43 44 45 49 54 59 63 68 74 78 83 87 93 98 103 108 113 119 127 135 142 152 163 174 181 187 191 194 197 197 193 190 186 181 178 176 173 171 169 166 163 164 166 166 167 169 168 165 164
61 60 59 58 58 57 54 52 51 50 49 46 41 37 34 31 28 28 27 25 25 25 27 31 37 41 44 44 47 52 57 61 66 71 76 81 85 90 95 101 105 110 115 122 130 138 145 156 167 176 184 188 191 195 197 195 191 188 183 179 176 173 171 169 167 164 164 165 165 164 167 169 168 166
60 59 58 58 57 56 53 51 50 49 49 46 41 38 35 32 30 28 27 26 24 24 26 30 35 40 43 44 46 51 56 60 64 69 74 78 83 87 92 98 102 107 112 118 125 133 140 148 159 170 179 185 189 192 195 196 194 189 185 180 175 172 170 170 169 167 166 165 164 162 164 167 169 168
60 59 58 57 57 56 53 50 48 48 47 44 40 38 37 34 31 28 26 25 24 24 26 29 33 38 42 44 46 50 54 59 62 67 72 77 81 85 89 94 99 104 108 114 121 128 135 142 151 162 172 181 187 190 193 195 195 191 187 181 176 171 169 169 170 169 168 166 163 162 162 164 167 169
60 58 57 57 56 55 52 49 47 46 46 43 39 37 36 35 33 29 26 25 24 24 26 28 32 36 41 43 45 48 52 57 61 65 70 75 79 83 87 92 97 101 105 110 116 122 129 136 144 154 164 174 182 187 191 193 194 192 189 183 177 171 167 167 170 170 169 167 164 162 162 163 164 167
59 58 57 56 56 55 52 49 46 45 44 42 38 36 35 34 33 31 27 25 24 24 26 27 30 34 39 42 44 46 50 55 59 63 68 72 76 81 86 90 95 99 103 107 112 117 123 130 138 146 156 166 176 183 188 191 193 193 191 186 182 175 166 164 168 171 169 168 167 164 164 164 164 165
58 58 56 56 56 54 52 50 47 45 43 41 37 35 34 32 31 31 28 26 24 25 26 27 29 32 36 40 42 45 48 52 57 62 66 70 74 78 83 88 91 95 99 104 109 113 118 125 132 140 148 158 168 177 184 188 191 192 192 190 186 181 173 166 167 170 170 168 168 167 166 165 165 165
57 57 56 56 56 54 51 49 47 45 43 41 38 35 34 31 29 28 28 26 25 25 26 27 28 30 34 37 40 43 46 50 55 60 64 68 71 76 81 85 88 91 95 100 105 110 115 120 126 134 142 150 159 170 179 185 189 191 192 192 190 187 181 173 169 170 170 168 168 168 167 165 164 165
56 55 55 55 55 54 51 48 47 46 44 41 39 35 33 31 28 26 26 25 26 26 25 26 26 28 31 34 37 40 43 47 52 57 62 65 69 73 78 82 85 87 91 96 101 107 112 116 122 129 137 144 152 162 172 181 186 189 191 192 192 190 186 181 175 172 171 169 168 167 167 165 164 163
54 53 53 54 54 53 50 47 45 45 44 42 39 36 33 31 29 27 25 24 24 24 24 25 25 26 28 31 34 37 40 43 48 53 58 61 65 69 74 78 80 83 87 92 97 104 109 113 118 124 132 139 146 155 165 174 182 187 190 191 193 192 189 185 181 177 174 171 169 166 165 165 164 163
52 51 52 53 53 52 50 46 44 44 45 43 39 36 33 32 31 29 27 24 23 23 23 23 24 24 26 28 31 33 36 39 43 47 53 57 61 65 69 74 76 77 82 89 95 101 106 109 114 121 127 135 142 148 157 167 176 184 188 190 192 192 192 189 185 181 177 173 170 167 163 162 163 163
49 48 50 52 52 51 49 46 44 44 44 42 39 35 34 33 32 30 28 26 23 22 22 22 22 22 23 25 28 30 31 34 37 41 47 52 57 61 66 69 72 73 79 86 93 100 103 106 112 118 123 130 138 143 150 159 169 178 184 188 190 192 192 191 188 185 181 175 171 169 165 162 161 162
47 46 48 50 51 50 49 46 44 44 44 42 39 36 34 34 32 30 28 26 24 22 21 21 20 21 21 22 25 26 28 29 32 36 42 47 52 57 62 66 68 71 78 85 92 98 101 104 111 117 120 126 133 139 145 152 161 170 178 185 188 190 192 192 190 187 184 178 172 169 166 163 161 161
46 45 46 47 48 48 47 46 45 45 44 43 40 38 35 34 32 30 27 25 23 22 21 20 19 19 19 20 22 24 25 27 29 33 37 43 49 54 59 63 67 71 77 84 89 94 97 102 108 113 116 122 128 135 141 147 154 163 171 178 184 188 190 191 190 187 185 182 176 172 169 166 162 160
44 44 45 46 46 46 46 46 45 45 44 43 41 39 35 33 31 29 26 23 21 21 20 19 18 17 17 18 19 21 23 25 27 30 34 40 46 51 57 62 66 70 75 81 87 90 93 98 104 109 113 118 124 130 137 142 148 155 163 171 178 184 187 189 190 188 186 184 181 177 175 172 168 162
44 43 44 44 44 44 44 44 44 44 43 43 41 38 34 31 29 27 25 22 20 19 18 17 16 16 16 16 17 19 21 23 26 29 32 37 43 49 55 60 65 69 74 80 84 86 89 94 100 104 109 114 120 126 132 138 144 150 157 164 171 177 182 185 188 188 187 185 183 180 179 177 174 169
43 44 44 44 43 42 42 43 43 42 42 42 40 36 32 29 27 25 24 21 18 17 17 16 15 15 14 14 15 17 20 22 25 27 31 35 41 47 54 59 64 68 73 77 80 82 87 92 96 101 106 111 116 122 128 134 140 145 151 158 164 170 176 180 184 186 187 186 184 182 180 179 177 174
43 44 44 43 43 42 42 42 42 40 40 40 38 34 30 27 26 24 23 21 18 16 15 15 14 13 13 13 14 16 18 21 24 26 30 33 39 45 52 57 63 67 71 74 77 80 84 88 93 98 103 108 114 119 124 130 135 141 147 152 158 163 169 174 178 182 186 186 185 183 182 181 178 176
43 43 43 43 42 42 42 42 41 40 39 38 36 32 28 26 25 24 23 21 18 16 14 14 13 12 12 12 13 15 17 20 23 26 29 32 37 43 49 55 60 64 68 71 74 77 81 86 91 96 102 107 112 116 121 125 130 136 142 147 153 158 162 168 173 177 181 184 185 184 183 182 180 178
42 43 43 42 41 41 41 41 41 40 38 36 35 32 28 26 25 24 23 21 19 16 14 13 12 11 11 11 12 13 16 19 23 26 28 31 35 40 47 53 58 61 65 68 72 75 78 83 89 95 100 105 110 114 118 122 126 131 137 142 148 154 157 162 168 172 176 180 183 184 183 182 181 180
41 42 42 42 41 41 40 40 40 39 37 36 35 34 30 27 26 24 23 21 19 17 14 13 12 11 11 11 11 13 15 18 22 25 28 31 34 38 44 50 55 59 62 66 69 72 76 80 85 91 96 101 107 111 115 119 122 126 131 137 143 149 153 157 162 167 172 176 179 181 182 182 182 182
40 41 41 41 41 41 40 40 40 41 40 37 37 36 34 30 26 25 23 21 19 17 15 13 11 10 10 10 11 12 14 17 21 24 28 30 33 37 42 48 53 56 59 63 67 70 74 77 80 85 91 96 102 106 110 114 118 122 126 130 136 143 149 153 157 162 167 171 174 177 179 181 182 182
39 40 40 40 40 40 41 41 41 41 41 40 37 36 35 31 27 24 23 21 19 17 15 13 11 10 10 10 10 11 14 16 20 23 26 29 33 37 41 46 50 53 56 60 64 68 71 74 77 81 87 93 98 102 105 110 113 117 121 125 130 136 142 148 153 157 161 166 170 172 173 176 179 181
38 38 38 39 39 40 40 40 39 39 40 40 38 36 34 32 28 24 23 21 19 17 15 13 11 10 9 9 10 11 13 15 19 22 25 28 31 35 40 44 48 51 54 57 61 66 70 74 78 82 86 90 95 99 102 106 109 112 116 120 124 129 135 141 148 153 157 161 165 167 168 169 172 175
36 37 36 37 38 38 39 38 38 37 38 38 37 35 33 32 29 25 22 21 19 17 15 14 12 10 9 9 10 11 12 14 17 21 24 27 29 34 38 43 47 50 53 55 58 63 68 73 76 81 85 89 93 96 99 102 105 108 112 115 119 123 128 134 141 147 152 157 161 164 164 164 165 168
35 35 35 35 36 37 37 37 36 36 36 37 37 35 32 31 29 26 23 21 19 17 15 14 12 10 9 9 9 10 12 13 16 20 23 26 28 31 36 41 45 49 52 54 57 60 65 70 75 79 83 87 91 94 97 100 102 105 108 111 115 118 122 127 133 140 147 152 157 159 161 161 161 163
34 34 34 35 35 36 36 36 35 35 36 36 37 36 33 30 28 27 23 20 19 17 15 13 12 11 9 9 9 10 11 13 15 18 22 25 28 30 34 39 44 47 50 53 56 59 63 69 74 77 81 84 88 92 95 98 100 102 105 108 111 114 117 121 126 132 139 145 150 154 157 158 160 161
33 33 34 34 35 35 35 35 34 34 34 35 36 37 35 31 29 27 25 21 19 18 16 13 12 11 10 9 9 10 11 12 14 17 21 24 27 30 32 37 42 46 49 52 55 58 62 67 72 76 79 82 85 89 92 95 98 100 103 105 108 111 114 117 120 125 130 136 142 147 151 154 157 160
32 33 33 33 34 34 34 34 33 33 33 33 34 35 35 33 29 27 26 23 20 18 16 14 12 11 10 9 9 9 11 12 14 16 19 23 26 29 32 35 39 44 48 51 54 57 60 64 68 73 78 81 84 87 89 92 95 97 100 102 105 108 111 114 116 119 123 127 132 138 143 148 152 156
32 32 32 33 33 34 33 33 33 32 31 32 32 32 33 33 30 27 26 24 22 19 17 15 13 10 10 9 9 9 10 12 14 16 18 21 25 28 31 33 37 41 46 50 53 56 58 61 65 69 74 79 82 85 87 90 92 94 96 99 101 104 107 110 112 115 117 120 123 128 133 138 143 148
31 31 32 32 33 34 34 33 32 32 31 31 31 31 31 31 30 27 24 24 23 20 18 16 14 11 10 9 9 9 10 11 13 15 18 20 23 27 30 33 36 39 43 48 52 54 56 59 62 66 70 75 79 82 84 87 89 91 93 95 97 100 102 105 107 109 111 114 116 120 124 129 134 138
31 31 31 32 33 33 33 33 33 32 31 31 31 30 30 29 30 28 24 22 22 21 19 16 15 13 11 9 9 10 10 11 13 15 17 19 22 25 29 32 35 38 41 45 49 53 55 57 60 63 67 71 75 78 81 83 85 87 89 91 93 95 97 99 101 103 105 108 110 113 116 120 124 128
31 31 31 32 32 33 33 33 33 32 32 32 31 31 30 29 29 29 27 23 21 21 20 18 15 14 12 10 9 10 10 11 12 15 17 19 21 24 27 31 34 37 39 42 46 50 53 56 58 60 63 66 70 74 77 79 81 83 84 86 88 90 92 94 96 98 100 103 105 108 111 113 116 119
30 31 32 32 33 32 32 32 32 32 33 32 32 32 31 30 29 28 28 26 23 21 20 19 17 15 13 11 10 9 10 11 12 14 16 18 21 23 25 29 32 36 38 41 44 47 51 54 56 59 61 63 66 69 72 75 77 78 79 81 83 84 86 89 91 93 96 98 100 103 106 108 111 113
30 31 32 32 33 33 32 32 32 32 32 33 33 32 31 30 29 28 27 26 25 22 20 19 18 16 14 12 11 10 10 11 12 14 15 17 20 22 24 27 30 34 37 40 42 45 48 51 54 57 59 62 64 66 68 71 72 74 75 77 78 80 82 84 87 89 92 94 97 99 101 103 105 108
30 31 32 33 33 33 32 32 32 32 32 33 33 33 32 31 30 29 27 26 25 23 21 19 18 17 15 14 12 11 10 11 12 14 15 17 19 21 24 26 29 31 35 38 41 43 46 48 51 54 57 60 62 64 66 68 69 71 72 73 75 76 78 80 83 86 88 91 93 95 97 99 101 103
Wind_Direction
320 321 320 318 316 316 316 316 315 314 313 311 309 306 300 293 289 283 272 263 259 255 250 242 235 232 228 225 224 222 220 218 217 216 215 214 213 212 210 208 208 207 207 206 206 206 205 205 206 207 207 208 209 210 211 212 212 212 213 215 218 217 215 215 215 215 215 215 214 213 214 215 216 217
321 322 320 319 317 316 317 317 316 314 313 312 311 307 300 294 289 283 273 263 259 256 251 244 237 232 229 226 224 222 221 219 217 215 215 214 213 212 211 209 208 207 207 207 207 206 206 206 206 206 207 208 208 210 211 212 213 213 214 215 218 219 217 216 217 217 217 216 216 215 213 214 215 217
321 322 321 319 318 317 318 319 316 314 314 313 312 307 301 295 289 283 273 262 257 255 251 246 239 233 230 227 225 223 221 219 217 215 215 214 213 212 211 210 208 208 207 207 207 207 206 206 206 206 207 208 208 209 211 213 214 214 215 216 218 219 219 218 217 219 219 218 218 217 215 214 214 215
322 323 322 320 318 318 320 319 316 315 316 315 313 308 301 296 291 284 274 262 256 254 252 247 241 235 230 227 225 223 221 220 218 216 214 214 213 212 212 211 209 208 208 208 207 207 207 207 206 206 207 208 208 209 211 213 214 215 215 216 218 219 220 219 218 219 220 220 219 219 218 216 215 214
323 324 322 321 319 320 321 320 318 317 317 317 314 309 303 298 293 287 277 263 254 253 251 247 242 236 231 228 226 224 222 220 218 216 215 214 213 212 211 211 210 208 208 208 208 208 208 207 207 207 207 207 208 209 210 212 214 215 216 216 217 219 220 220 218 218 220 221 221 220 220 219 218 216
324 324 323 322 321 321 322 321 320 319 319 318 315 310 304 300 295 289 280 267 254 251 250 248 243 238 232 228 225 224 222 221 219 217 215 214 213 212 211 211 211 209 208 208 208 208 208 208 207 207 207 207 208 209 210 211 213 214 215 216 217 219 220 220 219 219 220 221 221 222 221 220 220 219
324 325 324 323 321 321 323 322 321 320 320 319 316 310 306 302 297 290 282 271 257 250 249 248 245 240 233 228 225 223 221 220 219 217 216 215 213 213 212 211 211 210 209 209 209 208 208 208 208 208 207 207 208 209 210 211 212 213 215 216 217 218 220 221 220 219 220 221 222 222 222 221 220 220
325 326 324 323 322 322 324 323 322 321 320 320 316 310 307 305 300 293 284 273 261 251 248 247 245 241 236 230 226 223 221 219 218 217 216 215 214 213 212 211 211 211 210 209 209 209 209 209 208 208 208 208 208 209 210 211 212 213 214 215 217 218 220 221 220 220 220 222 223 223 223 223 222 221
326 326 324 323 323 324 325 324 322 321 321 321 317 311 309 308 303 297 289 278 266 255 249 247 245 243 237 231 227 225 222 219 217 217 216 215 214 213 213 212 212 212 211 209 209 209 209 209 209 209 208 208 208 209 209 210 212 213 213 214 216 218 220 221 221 221 221 222 223 224 224 224 224 223
326 326 325 324 324 324 325 325 323 322 322 321 318 313 311 310 306 299 291 282 271 259 251 247 246 244 239 233 228 226 224 221 218 217 216 215 214 214 213 212 212 212 212 211 209 209 209 209 209 209 209 209 208 209 209 210 212 213 213 214 215 217 219 220 220 221 221 222 223 224 225 224 224 225
327 327 326 324 324 324 325 325 324 323 323 322 319 316 314 312 309 302 294 285 274 264 256 249 246 244 241 235 229 226 224 222 220 218 217 216 215 214 213 213 212 212 212 211 210 209 209 210 210 210 209 209 209 209 209 210 211 212 212 213 215 216 218 220 220 220 221 222 223 224 226 225 224 225
327 327 326 325 324 325 326 326 325 324 324 323 322 319 317 315 312 306 297 287 277 268 259 251 246 244 241 236 230 226 224 222 220 219 218 217 216 214 214 213 213 212 212 212 211 210 209 210 210 210 210 210 209 209 209 210 211 212 212 213 214 215 217 219 219 220 221 222 223 223 226 227 226 225
328 328 326 324 324 325 326 327 326 325 324 324 324 322 320 317 314 308 300 290 280 271 262 254 247 243 241 237 231 226 224 222 220 219 218 218 216 215 214 214 213 212 212 212 212 211 210 210 210 210 210 210 210 210 209 210 211 212 212 213 213 214 216 218 219 219 220 221 222 223 225 227 227 226
327 327 326 324 324 325 327 327 327 326 325 325 325 325 322 319 315 310 303 293 284 275 265 256 249 244 241 238 233 228 225 223 221 219 218 218 216 215 215 214 213 213 212 212 212 212 211 210 210 210 211 210 210 210 210 210 210 212 212 212 213 213 214 216 218 219 219 220 222 222 223 225 227 227
327 327 326 324 324 326 327 328 327 327 327 327 327 326 323 320 316 312 306 298 288 279 269 259 251 246 242 239 235 230 226 223 221 220 219 218 217 215 215 214 214 213 212 212 212 212 212 211 210 210 211 211 211 210 210 210 210 211 212 212 212 212 213 215 217 218 219 220 221 222 223 224 226 228
327 327 326 324 325 326 328 328 328 328 329 329 329 327 324 320 317 313 308 301 292 282 272 262 254 247 243 239 236 231 227 223 221 220 219 219 218 216 215 215 214 213 212 211 212 212 213 212 211 210 211 211 211 211 211 211 210 211 212 212 212 212 213 214 216 218 219 220 220 222 223 224 225 227
327 326 325 324 325 327 329 329 329 330 331 331 330 328 323 320 318 315 309 302 294 284 274 265 257 249 244 240 236 232 228 224 221 221 220 219 218 217 216 216 215 214 213 212 211 212 212 212 211 211 211 211 212 211 211 211 211 211 212 212 212 213 213 214 216 218 218 219 220 221 223 224 225 226
327 326 325 325 325 327 329 330 330 331 332 333 332 328 324 321 320 317 310 302 293 285 277 268 260 252 246 241 237 233 229 225 222 221 221 220 218 218 217 217 216 214 213 212 212 211 212 212 212 211 211 211 212 212 212 211 211 211 212 212 213 213 214 214 216 217 218 219 220 221 222 224 224 226
327 326 325 325 326 327 328 331 333 333 333 334 333 329 326 324 323 320 314 304 294 288 279 270 263 255 247 242 238 234 229 226 223 221 221 220 219 219 219 218 217 214 212 212 212 212 212 212 212 212 211 211 212 212 212 212 212 212 212 213 213 214 214 215 216 217 218 219 219 220 221 223 224 225
327 326 325 325 326 327 328 331 334 335 335 334 333 330 328 327 326 323 317 308 298 290 282 273 265 257 249 243 239 234 230 227 224 221 221 220 220 219 219 220 219 215 212 212 212 213 212 212 212 212 211 211 211 212 212 212 212 212 213 213 213 214 215 215 216 216 218 218 219 219 220 221 223 224
327 327 326 326 326 327 328 332 335 336 335 334 333 332 331 329 328 324 318 311 303 294 285 276 268 260 251 244 239 235 231 228 225 221 220 219 219 220 220 220 219 216 212 211 212 213 213 211 211 212 212 211 212 212 212 213 213 213 213 213 214 214 215 215 216 217 218 218 219 219 220 221 222 223
327 327 327 327 327 327 329 333 337 337 335 334 335 335 334 330 327 323 317 311 304 297 288 279 271 263 254 245 239 236 233 229 225 221 218 217 218 219 219 219 218 215 212 212 212 213 212 211 211 212 212 211 212 212 212 213 213 213 213 214 214 215 215 216 216 217 218 218 219 220 220 220 221 223
327 328 328 327 327 327 330 334 337 337 336 336 337 337 334 330 326 322 316 310 304 298 291 283 275 266 256 247 240 236 232 228 223 219 216 214 215 216 217 218 217 214 212 212 213 213 212 211 211 212 212 212 212 212 212 213 213 214 214 214 215 215 216 216 216 217 218 219 219 220 220 221 222 223
328 328 328 328 327 328 332 335 337 336 336 338 338 336 332 328 325 321 316 311 305 299 293 285 278 269 259 248 240 235 231 226 221 217 214 212 212 213 214 215 215 214 212 213 214 214 213 212 212 212 212 212 212 212 213 213 213 214 214 215 215 215 216 217 217 217 218 219 219 220 221 222 222 223
328 329 329 328 328 330 334 336 336 337 338 338 337 333 330 326 324 321 317 313 307 301 294 288 281 272 261 249 240 234 229 223 218 214 212 210 209 210 212 213 214 213 212 212 213 213 212 212 212 212 212 212 212 212 213 213 213 214 214 215 215 216 216 217 217 217 218 219 220 220 221 223 223 223
328 329 329 329 329 332 335 336 336 337 339 338 334 331 328 325 324 323 320 316 311 304 297 290 283 276 264 250 239 233 227 221 214 210 208 208 207 208 210 212 212 212 212 213 213 212 211 211 212 212 213 213 213 213 213 213 213 214 214 215 216 216 216 217 218 218 218 218 220 220 221 223 224 223
328 329 329 329 330 333 335 335 336 337 338 336 332 329 328 327 327 327 324 320 315 310 302 294 287 279 267 252 239 231 225 218 211 206 205 205 206 207 208 211 212 212 212 212 213 211 210 210 211 211 212 213 213 213 213 213 214 214 214 215 216 216 216 217 218 219 219 218 219 220 221 223 224 224
328 328 329 330 332 334 335 335 336 337 337 335 332 331 331 331 331 331 328 324 320 315 307 297 290 282 270 254 239 231 224 217 209 203 201 202 204 205 207 210 212 212 212 212 212 211 210 209 210 210 211 212 213 214 214 214 214 214 214 215 216 216 217 217 217 219 220 219 219 220 221 222 223 224
327 328 329 330 332 334 335 335 335 334 335 335 333 334 336 337 335 334 332 328 323 319 312 303 293 284 273 256 239 230 224 217 209 201 198 198 201 203 206 209 211 212 212 212 212 212 211 210 209 210 210 211 212 213 214 214 214 215 215 215 216 216 217 217 217 218 220 220 220 219 220 222 223 224
327 328 329 330 332 334 334 334 333 333 335 338 338 338 339 341 339 336 334 331 326 321 315 307 297 287 276 260 241 228 223 217 209 202 197 196 198 201 204 207 210 211 211 211 211 211 211 211 210 210 210 211 212 213 214 215 215 215 215 215 216 216 217 218 218 218 219 221 221 220 220 221 223 224
327 329 330 330 332 333 334 335 335 335 337 341 343 341 340 341 340 337 335 332 328 323 318 310 300 291 279 264 246 231 223 217 210 203 198 195 196 198 202 205 209 210 211 211 211 211 211 211 211 212 212 212 213 214 214 215 215 216 216 216 216 216 217 218 218 219 219 221 222 222 221 221 222 223
327 329 330 331 332 333 335 336 336 336 337 340 343 342 339 339 339 338 335 333 330 325 320 313 303 293 281 268 252 235 225 219 212 205 201 198 196 197 200 204 207 209 210 210 210 210 210 210 211 212 213 213 214 215 215 215 216 216 216 217 216 217 217 218 219 219 220 221 222 223 223 222 222 223
328 329 330 331 332 333 334 335 336 336 337 338 341 341 339 336 338 338 336 334 332 328 322 315 306 295 282 271 257 240 228 221 214 207 202 200 198 198 199 202 205 208 209 209 208 209 209 209 209 209 211 213 214 215 216 216 217 217 217 217 217 217 218 218 219 220 220 221 223 224 225 224 223 223
327 329 330 331 332 332 333 333 334 336 336 337 338 340 339 337 336 338 337 335 333 330 324 317 309 298 285 273 260 247 233 223 217 211 204 201 201 200 200 201 203 206 207 207 207 208 209 210 209 209 209 210 212 214 216 216 217 217 218 218 218 218 218 219 219 220 221 222 223 224 225 226 225 225
327 329 330 331 332 332 332 332 334 336 337 337 337 339 340 338 336 336 337 336 333 332 327 319 311 301 289 275 263 253 240 227 219 214 207 202 201 202 202 201 202 205 206 206 206 207 208 209 210 210 210 210 211 212 214 216 216 217 217 218 218 219 219 219 219 220 221 222 223 224 225 226 226 226
327 329 331 331 332 332 331 332 334 336 338 338 337 337 339 340 337 334 335 336 334 332 329 322 313 303 291 277 265 255 246 234 224 217 211 205 202 202 203 203 202 203 206 206 206 206 207 208 209 210 211 211 211 212 213 214 215 216 217 218 218 219 219 220 220 220 221 222 223 224 225 226 226 227
328 330 331 332 332 331 331 332 334 337 339 339 338 337 338 339 338 335 334 335 334 332 329 325 316 306 294 280 266 255 248 240 230 222 215 210 204 202 203 204 204 203 204 206 207 206 206 208 209 210 210 211 212 213 213 214 214 215 216 217 217 218 219 220 220 221 221 222 223 224 225 225 226 227
328 329 331 332 331 331 331 332 334 337 339 340 340 338 337 338 339 337 334 333 333 331 328 325 320 309 297 284 269 256 247 241 235 228 221 215 209 204 202 204 206 205 204 205 207 208 208 208 209 210 211 211 212 213 214 215 215 215 216 216 217 218 219 219 220 221 221 222 223 224 225 225 226 227
328 329 331 331 331 330 331 332 334 337 339 340 340 339 337 337 338 338 335 332 331 330 328 324 321 313 300 286 273 258 246 240 236 232 226 220 214 209 205 203 205 207 207 206 206 208 209 209 209 210 211 212 213 213 214 215 216 216 216 217 217 218 218 219 220 221 221 222 222 223 224 225 226 227
327 329 331 332 331 330 330 332 334 336 338 340 341 340 339 338 337 338 338 333 330 328 326 323 321 316 305 291 277 262 248 239 235 233 230 225 219 214 209 205 205 207 208 209 208 207 208 210 210 210 212 213 214 215 216 216 217 217 217 218 218 219 219 220 220 221 222 222 223 223 224 225 226 227
327 330 332 332 331 330 330 331 333 335 338 340 341 341 341 340 338 338 338 336 332 327 325 322 319 316 310 297 282 268 253 241 234 231 230 228 224 219 214 209 206 206 208 210 210 209 209 209 210 211 212 213 214 216 217 218 218 219 219 219 219 220 220 221 221 222 222 223 223 224 224 225 226 227
328 331 333 333 331 329 329 331 332 334 337 339 341 341 342 342 341 339 338 338 335 330 325 321 317 314 311 303 289 273 260 247 237 231 229 229 227 224 219 214 210 208 207 209 211 211 211 210 210 211 212 213 214 216 218 219 220 220 221 221 220 221 221 221 222 222 223 223 223 224 224 225 226 226
329 332 333 333 330 329 329 330 332 334 336 338 340 342 342 343 343 341 339 338 337 333 327 321 317 313 309 304 295 280 265 254 244 235 230 228 227 227 224 220 216 212 210 209 210 212 213 212 211 211 212 213 214 216 217 219 220 221 221 222 222 221 221 221 222 222 222 223 223 224 224 225 225 226
331 333 333 332 330 328 328 330 331 333 335 337 338 341 342 343 343 343 341 339 336 334 330 323 317 312 308 303 298 288 273 260 250 241 234 229 227 227 226 225 222 217 214 211 211 212 214 214 214 212 212 212 213 215 216 217 218 220 221 221 222 222 222 221 221 222 222 223 223 224 224 225 225 226
332 334 334 332 329 327 328 329 331 332 334 336 337 339 341 343 343 343 343 341 337 334 331 326 318 312 307 302 298 291 280 267 255 247 240 233 229 227 226 227 226 223 219 216 213 213 214 215 216 215 214 213 213 213 214 215 216 217 218 219 220 220 221 221 221 221 222 222 223 223 224 224 225 225